[[{"header":{"parameterUnit":"m.s-1","parameterCategory":1,"la1":30.2991,"la2":30.254,"lo1":-89.0895,"lo2":-89.0444,"dy":0.0017,"dx":0.0017,"nx":28,"ny":28,"refTime":"2024-04-05T21:00:00:Z","depth":0,"parameterNumber":2,"parameterNumberName":"U-component_of_WINDS"},"data":[0,0,0,0,0,0,0,0,0,0,0,0,0,0,0,0,0,0,0,0,0,0,0,0,0,0,0,0,0,0,0,0,0,0,0,0,0,0,0,0,0,0,0,0,0,0,0,0,0,0,0,0,0,0,0,0,0,0,-3.3937,-3.3938,0,-3.4026,-3.4027,-3.4028,-3.404,-3.4039,-3.4038,-3.4038,-3.4128,-3.4131,-3.4134,0,0,0,0,0,0,0,0,0,0,0,0,0,-3.3778,-3.3781,-3.3937,-3.3938,-3.3939,-3.4025,-3.4027,-3.4028,-3.404,-3.4039,-3.4038,-3.4037,-3.4127,-3.4131,-3.4135,0,0,0,0,0,0,0,0,0,0,0,0,0,-3.3855,-3.3782,-3.3936,-3.3956,-3.3958,-3.4025,-3.4027,-3.4028,-3.404,-3.4039,-3.4038,-3.4037,-3.4126,-3.4131,-3.4135,-3.4189,0,0,-3.415,-3.4152,0,0,0,0,0,0,0,0,-3.3851,-3.3861,-3.3952,-3.3954,-3.3957,-3.4021,-3.4004,-3.4082,-3.4041,-3.4009,-3.4038,-3.4036,-3.4093,-3.4101,-3.412,-3.4194,-3.4198,-3.415,-3.4153,-3.4155,-3.4157,0,0,0,0,0,0,0,-3.3845,-3.3857,-3.3972,-3.3953,-3.3956,-3.396,-3.3969,-3.4019,-3.4057,-3.4012,-3.4013,-3.4023,-3.4095,-3.4115,-3.4122,-3.4199,-3.415,-3.4154,-3.4157,-3.4159,-3.4322,-3.4323,0,0,0,0,0,0,-3.3837,-3.3853,-3.3969,-3.3975,-3.39,-3.3964,-3.3974,-3.4001,-3.4057,-3.4064,-3.4024,-3.4024,-3.4108,-3.4117,-3.4126,-3.4192,-3.4155,-3.416,-3.4162,-3.432,-3.4322,-3.4324,0,0,0,0,0,0,-3.3833,-3.3847,-3.3965,-3.3914,-3.3929,-3.3968,-3.3998,-3.4004,-3.4025,-3.4066,-3.4073,-3.4038,-3.4107,-3.4119,-3.4174,-3.4196,-3.4162,-3.4166,-3.4319,-3.4321,-3.4323,-3.4326,0,0,0,0,0,0,-3.3828,-3.3845,-3.3866,-3.3914,-3.3932,-3.4012,-3.3999,-3.4007,-3.4033,-3.4033,-3.4081,-3.4088,-3.4107,-3.4166,-3.4178,-3.4201,-3.417,-3.4317,-3.432,-3.4322,-3.4324,-3.4328,-3.4332,0,0,0,0,0,-3.3823,-3.3863,-3.3867,-3.3881,-3.3959,-3.4013,-3.4023,-3.4045,-3.4035,-3.4056,-3.4083,-3.4086,-3.4192,-3.4172,-3.4185,-3.421,-3.4316,-3.4319,-3.4322,-3.4322,-3.4327,-3.4331,0,0,0,0,0,0,-3.3816,-3.387,-3.3875,-3.3932,-3.3968,-3.4015,-3.4042,-3.4049,-3.4088,-3.4086,-3.4112,-3.4122,-3.4176,-3.4199,-3.4176,-3.4266,-3.4253,-3.4259,-3.4248,-3.4253,-3.4257,-3.4249,-3.4174,0,0,0,0,0,-3.3822,-3.3861,-3.3906,-3.3952,-3.397,-3.4003,-3.4028,-3.4041,-3.4079,-3.4094,-3.4125,-3.4162,-3.4204,-3.423,-3.4271,-3.4329,-3.4339,-3.4353,-3.4356,-3.4359,-3.4363,-3.4396,-3.4402,-3.4335,-3.4335,-3.4335,0,0,-3.3833,-3.3867,-3.389,-3.3952,-3.3981,-3.4022,-3.4016,-3.4059,-3.4089,-3.4101,-3.4154,-3.4178,-3.4221,-3.4278,-3.4304,-3.4299,-3.4385,-3.4363,-3.4365,-3.4368,-3.44,-3.4406,-3.4412,-3.4337,-3.4336,-3.4336,0,0,-3.3873,-3.3904,-3.3945,-3.3975,-3.402,-3.4042,-3.4052,-3.4099,-3.4115,-3.4169,-3.4179,-3.4216,-3.4287,-3.4317,-3.4342,-3.4396,-3.44,-3.4408,-3.4427,-3.4458,-3.4463,-3.4468,-3.4486,-3.4493,-3.4413,-3.4413,-3.4413,0,-3.3881,-3.3942,-3.3966,-3.4009,-3.4035,-3.4049,-3.4092,-3.412,-3.4175,-3.4193,-3.4187,-3.4277,-3.4306,-3.437,-3.4383,-3.4403,-3.4415,-3.4402,-3.446,-3.4466,-3.447,-3.4488,-3.4495,-3.4414,-3.4413,-3.4413,-3.4413,0,-3.395,-3.3992,-3.4021,-3.4074,-3.4105,-3.4147,-3.4177,-3.4205,-3.4217,-3.4239,-3.4295,-3.4332,-3.438,-3.4396,-3.4408,-3.4462,-3.4457,-3.4455,-3.4442,-3.4477,-3.4494,-3.4501,-3.4414,-3.4414,-3.4414,-3.4414,0,0,-3.3987,-3.4054,-3.4064,-3.4088,-3.4139,-3.4173,-3.4216,-3.4264,-3.4287,-3.4326,-3.4362,-3.4423,-3.4422,-3.445,-3.4465,-3.4493,-3.4533,-3.4488,-3.4489,-3.4494,-3.4594,-3.4594,-3.4601,-3.4537,-3.4539,-3.454,-3.459,0,-3.4032,-3.411,-3.4133,-3.4198,-3.4237,-3.4252,-3.429,-3.4325,-3.4348,-3.4385,-3.4411,-3.4453,-3.4449,-3.4466,-3.4494,-3.4522,-3.4553,-3.4519,-3.4571,-3.4573,-3.4558,-3.461,-3.461,-3.4655,-3.4597,-3.4598,-3.4599,0,-3.4095,-3.4135,-3.4204,-3.425,-3.4268,-3.4301,-3.4347,-3.4382,-3.4423,-3.4438,-3.447,-3.4484,-3.453,-3.4516,-3.458,-3.4556,-3.458,-3.4597,-3.4599,-3.4603,-3.4586,-3.4614,-3.467,-3.4677,-3.461,-3.4609,-3.4608,0,-3.4114,-3.4185,-3.4235,-3.4256,-3.4312,-3.4335,-3.4359,-3.4399,-3.4427,-3.4467,-3.4485,-3.453,-3.4554,-3.4589,-3.4615,-3.4603,-3.4677,-3.4665,-3.469,-3.4689,-3.4703,-3.4701,-3.4762,-3.4721,-3.4721,-3.472,-3.472,0,-3.4161,-3.4203,-3.4244,-3.4275,-3.4322,-3.4349,-3.4394,-3.442,-3.4455,-3.4491,-3.4508,-3.4541,-3.4574,-3.4612,-3.4633,-3.4682,-3.4694,-3.4707,-3.4711,-3.4704,-3.4702,-3.4718,-3.4715,-3.4722,-3.4722,-3.4722,-3.4721,0,-3.4189,-3.4219,-3.4274,-3.4323,-3.4336,-3.4369,-3.4411,-3.4441,-3.4466,-3.4511,-3.4523,-3.4562,-3.4607,-3.4637,-3.4696,-3.471,-3.4763,-3.4768,-3.4749,-3.4751,-3.4774,-3.4771,-3.4845,-3.4856,-3.4809,-3.4809,-3.481,0,-3.4217,-3.4249,-3.4301,-3.4326,-3.4351,-3.4392,-3.442,-3.4448,-3.4476,-3.4526,-3.4551,-3.4598,-3.4637,-3.4709,-3.4742,-3.4787,-3.4792,-3.4816,-3.4799,-3.4791,-3.4791,-3.4788,-3.4792,-3.4817,-3.4818,-3.4818,-3.4818,0,-3.4262,-3.4275,-3.4315,-3.436,-3.4393,-3.443,-3.4466,-3.4486,-3.4521,-3.4553,-3.46,-3.463,-3.469,-3.4736,-3.4785,-3.481,-3.482,-3.4824,-3.4832,-3.4824,-3.4811,-3.4817,-3.4755,-3.4821,-3.4821,-3.4821,-3.4821,-3.482,-3.429,-3.4319,-3.436,-3.4404,-3.4435,-3.4469,-3.45,-3.4529,-3.4568,-3.4619,-3.4634,-3.4683,-3.4724,-3.479,-3.4817,-3.4856,-3.4853,-3.4865,-3.4867,-3.487,-3.4869,-3.4806,-3.4865,-3.4865,-3.4865,-3.4865,-3.4865,0,-3.4335,-3.4363,-3.4403,-3.4454,-3.4488,-3.4495,-3.4537,-3.4565,-3.4608,-3.4646,-3.4684,-3.4738,-3.4784,-3.4821,-3.4868,-3.4892,-3.4898,-3.4903,-3.4901,-3.4906,-3.487,-3.4857,-3.4898,-3.4898,-3.4898,-3.4898,-3.4898,-3.4898,-3.4363,-3.4412,-3.443,-3.4496,-3.4523,-3.4571,-3.4594,-3.4626,-3.4656,-3.4716,-3.4754,-3.4778,-3.4816,-3.4866,-3.4908,-3.4918,-3.4934,-3.4938,-3.4949,-3.4913,-3.4909,-3.4905,-3.4894,-3.4942,-3.4942,-3.4982,-3.4983,-3.4983]},{"header":{"parameterUnit":"m.s-1","parameterCategory":1,"la1":30.2991,"la2":30.254,"lo1":-89.0895,"lo2":-89.0444,"dy":0.0017,"dx":0.0017,"nx":28,"ny":28,"refTime":"2024-04-05T21:00:00:Z","depth":0,"parameterNumber":3,"parameterNumberName":"V-component_of_WINDS"},"data":[0,0,0,0,0,0,0,0,0,0,0,0,0,0,0,0,0,0,0,0,0,0,0,0,0,0,0,0,0,0,0,0,0,0,0,0,0,0,0,0,0,0,0,0,0,0,0,0,0,0,0,0,0,0,0,0,0,0,5.6436,5.6437,0,5.6525,5.6526,5.6527,5.656,5.656,5.656,5.6559,5.6644,5.6646,5.6649,0,0,0,0,0,0,0,0,0,0,0,0,0,5.6289,5.6291,5.6436,5.6437,5.6438,5.6524,5.6526,5.6527,5.656,5.656,5.656,5.6559,5.6643,5.6646,5.6649,0,0,0,0,0,0,0,0,0,0,0,0,0,5.6362,5.6292,5.6435,5.6465,5.6469,5.6524,5.6526,5.6527,5.656,5.656,5.656,5.6559,5.6642,5.6646,5.6649,5.668,0,0,5.6661,5.6662,0,0,0,0,0,0,0,0,5.6358,5.6368,5.646,5.6463,5.6467,5.6531,5.6505,5.6578,5.656,5.6525,5.6559,5.6559,5.6606,5.6613,5.663,5.6684,5.6687,5.6661,5.6663,5.6665,5.6666,0,0,0,0,0,0,0,5.6353,5.6364,5.6471,5.6461,5.6466,5.6472,5.6482,5.6519,5.6566,5.6528,5.6531,5.6541,5.6608,5.6626,5.6632,5.6689,5.6661,5.6664,5.6666,5.6668,5.6772,5.6772,0,0,0,0,0,0,5.6344,5.636,5.6468,5.6473,5.6411,5.6475,5.6486,5.6511,5.6566,5.6574,5.6542,5.6543,5.662,5.6628,5.6635,5.6675,5.6665,5.6668,5.667,5.6771,5.6772,5.6772,0,0,0,0,0,0,5.6341,5.6353,5.6464,5.6417,5.6432,5.6478,5.6505,5.6513,5.6531,5.6576,5.6584,5.6552,5.662,5.663,5.6669,5.6679,5.667,5.6673,5.6771,5.6771,5.6772,5.6755,0,0,0,0,0,0,5.6336,5.6352,5.6365,5.6417,5.6434,5.6498,5.6506,5.6515,5.6538,5.6541,5.6588,5.6596,5.6621,5.6663,5.6673,5.6684,5.6676,5.677,5.6771,5.6772,5.6755,5.6755,5.6755,0,0,0,0,0,5.6331,5.6355,5.6366,5.6379,5.6452,5.6499,5.6508,5.6538,5.6539,5.6552,5.6581,5.6594,5.6676,5.6667,5.6678,5.669,5.6769,5.6771,5.6772,5.6755,5.6755,5.6755,0,0,0,0,0,0,5.63,5.6363,5.6375,5.6417,5.6453,5.6504,5.6522,5.6537,5.6572,5.6572,5.6606,5.6616,5.6652,5.6675,5.6664,5.6723,5.6724,5.6727,5.6707,5.6707,5.6708,5.6701,5.6679,0,0,0,0,0,5.6299,5.6334,5.6385,5.6417,5.6435,5.6475,5.6496,5.6517,5.6554,5.6568,5.66,5.6634,5.6667,5.6688,5.6721,5.6758,5.6769,5.6772,5.6772,5.6772,5.6774,5.6796,5.6798,5.6776,5.6776,5.6776,0,0,5.6296,5.6334,5.6353,5.6412,5.6442,5.6475,5.6487,5.6522,5.6546,5.6573,5.6613,5.6637,5.6676,5.6715,5.6733,5.6734,5.6783,5.6773,5.6773,5.6776,5.6797,5.6799,5.6801,5.6777,5.6777,5.6777,0,0,5.6307,5.634,5.6371,5.6401,5.6447,5.6474,5.6481,5.6531,5.6549,5.659,5.661,5.6639,5.6695,5.6723,5.6745,5.6767,5.6781,5.6777,5.6778,5.6798,5.68,5.6802,5.681,5.6813,5.6779,5.6779,5.6779,0,5.6297,5.635,5.6384,5.6419,5.6443,5.6471,5.6502,5.6529,5.6582,5.6598,5.6599,5.6672,5.6701,5.6746,5.6752,5.6768,5.6777,5.6772,5.6797,5.6799,5.6801,5.681,5.6813,5.6779,5.6779,5.6779,5.6779,0,5.6335,5.6372,5.6391,5.6445,5.6472,5.6504,5.6541,5.6564,5.6582,5.6608,5.6648,5.6684,5.6725,5.6737,5.6754,5.6785,5.6785,5.6791,5.6793,5.6802,5.6811,5.6814,5.6778,5.6778,5.6778,5.6778,0,0,5.633,5.6403,5.641,5.6435,5.6488,5.6516,5.6548,5.6591,5.661,5.6646,5.6674,5.6721,5.6728,5.6753,5.6773,5.679,5.6807,5.6795,5.6796,5.6796,5.6843,5.6838,5.6842,5.6816,5.6816,5.6817,5.684,0,5.6349,5.6412,5.6444,5.6492,5.6526,5.6553,5.6581,5.6616,5.6641,5.6672,5.6698,5.6732,5.6738,5.6753,5.6772,5.6801,5.6817,5.6799,5.6841,5.6842,5.6831,5.6846,5.6841,5.6861,5.6843,5.6844,5.6844,0,5.638,5.6418,5.6471,5.6521,5.6536,5.6561,5.6603,5.6633,5.6672,5.6689,5.6717,5.6737,5.6771,5.677,5.6816,5.6804,5.6823,5.6839,5.684,5.6846,5.6844,5.6852,5.6868,5.6871,5.685,5.6849,5.6849,0,5.6372,5.6436,5.6476,5.6496,5.6555,5.6573,5.6598,5.6637,5.6661,5.6696,5.6712,5.675,5.6771,5.6799,5.6828,5.6825,5.6872,5.6873,5.6886,5.6886,5.6895,5.6894,5.6915,5.6906,5.6906,5.6906,5.6906,0,5.639,5.6421,5.6474,5.6498,5.6533,5.6569,5.6602,5.6628,5.6663,5.6692,5.6716,5.6742,5.6779,5.6809,5.6832,5.6868,5.6876,5.689,5.6896,5.6888,5.6887,5.6901,5.6901,5.6907,5.6907,5.6907,5.6906,0,5.6387,5.6423,5.6469,5.6522,5.6536,5.656,5.6604,5.6628,5.6654,5.6691,5.6701,5.6742,5.6779,5.6811,5.6859,5.6874,5.6911,5.6917,5.6898,5.6902,5.6913,5.6912,5.6944,5.695,5.6937,5.6937,5.6937,0,5.6397,5.6422,5.6478,5.6501,5.6526,5.6561,5.6587,5.6621,5.6646,5.6693,5.6711,5.6751,5.6784,5.6842,5.6874,5.6911,5.6919,5.6928,5.6925,5.6917,5.692,5.6918,5.6921,5.6928,5.6928,5.6928,5.6928,0,5.641,5.6427,5.6464,5.6507,5.6537,5.6572,5.6608,5.6624,5.6665,5.6691,5.6731,5.6757,5.6807,5.6846,5.6886,5.691,5.6925,5.6929,5.6934,5.6927,5.6915,5.6922,5.6899,5.6928,5.6928,5.6928,5.6928,5.6928,5.6414,5.6438,5.6482,5.6522,5.6553,5.6586,5.6612,5.6642,5.6677,5.6722,5.674,5.678,5.6818,5.6875,5.6898,5.6929,5.6931,5.6938,5.694,5.6942,5.6941,5.691,5.6936,5.6936,5.6936,5.6936,5.6937,0,5.643,5.646,5.6496,5.6547,5.6578,5.6592,5.6632,5.6657,5.6693,5.6728,5.6761,5.6806,5.6844,5.688,5.6919,5.6937,5.6945,5.6946,5.6945,5.695,5.6936,5.6929,5.6939,5.6939,5.6939,5.6939,5.6939,5.6939,5.6442,5.6483,5.6506,5.6562,5.6591,5.6633,5.6655,5.6684,5.6713,5.6764,5.6796,5.682,5.6855,5.6897,5.6932,5.6941,5.6955,5.6954,5.6965,5.6952,5.6951,5.695,5.6943,5.6956,5.6956,5.6977,5.6977,5.6977]}]]